Location: Newark
(6.1731°S, 35.7419°E)
Time: 08:01:39
(UTC+00:00)

Altair - Pass Details

Date: 26 February 2020
Orbit: 1501 x 1682 km, 47.2° (Epoch: 04 April)

Event Time Altitude Azimuth Distance (km) Brightness Sun altitude
Rises 17:49:47 0° 220° (SW) 4,670 10.8 -28.3°
Reaches altitude 10° 17:52:50 10° 220° (SW) 3,673 10.1 -29.1°
Maximum altitude 18:02:04 90° 307° (NW) 1,503 7.3 -31.3°
Enters shadow 18:03:53 63° 39° (NE) 1,642 7.3 -31.7°
